Location: Unspecified
(40.7945°N, 111.1337°W)
Time: 14:36:57
(UTC-06:00)

Explorer 7 - Visible Passes

Search period start: 24 June 2019 00:00
Search period end: 04 July 2019 00:00
Orbit: 485 x 680 km, 50.3° (Epoch: 24 June)

Date Brightness Start Highest point End Pass type
(mag) Time Alt. Az. Time Alt. Az. Time Alt. Az.
01 Jul 9.3 04:51:01 10° SE 04:52:08 11° SE 04:53:15 10° ESE visible
02 Jul 8.7 04:54:07 10° S 04:56:55 19° SE 04:59:48 10° E visible
03 Jul 7.9 04:58:25 10° SSW 05:01:47 32° SE 05:05:24 10° ENE visible
